Theta_e
316 317 317 318 319 319 320 320 321 321 322 322 322 323 323 323 323 323 323 323 324 325 326 326 325 325 322 322 323 322 311 298 297 297 298 299 310 322 323 324 325 326 319 299 301 299 294 294 297 296 293 291 292 293 293 292 291 290 284 279 280 278 280 280 282 281 283 286 286 285 287 289 288 288 291 292 291 289 290 291 293 293 293 295 295 291 293 294
315 317 317 317 318 319 319 320 320 322 321 322 322 323 323 323 322 321 322 323 324 326 326 326 325 324 323 321 323 320 301 296 294 295 297 309 322 325 325 325 326 323 315 298 299 295 294 293 294 290 290 290 291 292 294 293 291 283 280 280 281 277 280 284 282 282 286 288 286 286 286 288 289 290 290 289 287 286 288 291 291 292 295 297 297 296 293 293
316 316 317 317 318 318 319 320 321 321 322 322 323 323 323 323 321 322 323 324 325 325 325 326 325 323 322 322 320 317 303 294 292 293 298 320 323 325 323 323 324 319 300 301 298 299 297 297 295 291 287 291 288 291 289 291 292 285 284 282 279 281 281 283 285 288 286 287 288 288 286 286 288 289 289 289 288 287 287 290 289 289 292 294 295 295 293 292
316 316 316 317 317 318 319 320 321 321 321 323 323 323 323 323 323 323 324 325 326 324 324 326 326 323 321 320 322 301 296 292 289 293 295 316 323 324 323 322 323 310 302 299 300 300 293 289 287 290 289 286 286 287 290 290 290 287 285 282 282 282 286 286 284 285 287 286 287 286 285 284 286 287 290 287 287 289 289 291 292 292 292 293 293 293 292 292
315 316 316 317 318 319 319 320 321 321 322 323 322 322 323 323 323 323 324 324 323 322 323 326 326 324 320 320 317 302 292 285 289 295 298 320 323 320 319 324 322 300 301 300 296 292 289 289 290 286 288 289 284 287 285 288 288 288 286 283 284 283 285 287 286 284 284 284 285 284 285 288 288 287 288 288 287 287 289 292 291 292 293 292 293 293 292 291
315 316 316 317 318 319 319 319 320 321 322 322 323 323 323 322 323 323 324 324 323 322 324 325 325 323 321 317 295 293 292 279 293 295 315 319 319 318 319 324 318 299 297 294 295 290 294 291 288 287 284 286 284 286 286 286 289 287 283 284 283 283 287 286 285 285 284 286 285 285 286 286 286 286 284 287 289 292 296 294 294 292 293 293 292 291 291 291
315 316 316 317 318 318 319 319 320 321 322 322 322 323 322 322 323 324 324 325 326 325 326 325 324 323 320 316 298 295 292 292 292 298 309 317 317 313 316 311 310 296 295 294 293 294 288 288 287 285 285 285 285 284 288 291 288 288 286 284 287 283 286 286 287 284 283 284 286 285 285 286 285 286 285 285 291 293 295 295 294 294 294 292 290 292 293 293
316 316 317 317 317 318 318 319 320 321 321 322 323 323 323 323 323 324 324 324 325 326 325 325 324 320 315 298 301 290 287 292 297 298 309 313 304 302 306 298 298 293 295 293 295 293 289 290 289 288 285 288 287 288 288 289 286 286 285 284 286 285 285 284 284 285 284 284 286 285 286 287 286 285 284 288 292 292 292 290 289 289 288 287 288 291 292 292
316 316 316 317 317 317 318 319 319 320 322 322 322 322 323 323 323 323 324 325 325 325 325 325 322 317 312 294 288 286 289 293 295 298 297 298 298 298 298 302 297 294 292 291 292 294 293 289 291 289 290 287 289 290 287 288 284 286 286 287 286 287 286 286 285 283 282 284 284 286 284 286 285 286 285 290 292 291 288 288 289 287 288 289 289 289 290 291
316 316 317 316 316 317 318 319 319 320 320 321 322 322 323 323 323 323 324 325 325 324 323 324 324 313 300 295 291 290 294 296 295 297 296 295 297 300 297 297 296 295 298 294 294 293 293 291 294 292 289 289 289 289 287 288 287 286 286 286 286 288 285 285 285 283 283 282 284 285 284 285 285 286 284 285 287 287 289 289 289 287 288 289 289 290 289 290
316 316 316 316 317 317 318 318 319 319 320 321 322 323 324 324 323 324 324 324 324 322 324 323 316 306 296 292 291 289 299 300 298 297 296 296 298 298 297 297 296 296 295 295 296 294 295 292 292 291 292 289 289 287 288 288 288 288 287 285 284 283 282 283 283 282 284 287 283 285 285 284 283 284 285 289 289 287 287 289 289 287 287 289 289 290 289 289
316 316 316 316 317 318 319 319 319 318 320 322 323 323 324 324 323 323 324 323 322 324 321 318 311 297 293 293 291 293 299 301 298 297 297 297 297 297 298 298 296 298 297 297 296 295 293 295 294 294 290 293 287 288 287 288 290 286 285 284 282 281 283 284 284 284 282 287 285 284 283 283 282 283 285 287 287 289 288 288 289 289 289 288 288 289 289 290
316 316 316 316 317 318 319 319 319 320 321 322 323 323 323 322 320 322 323 320 321 324 321 318 308 300 298 291 295 299 297 297 298 296 298 296 296 295 297 296 296 296 297 297 295 297 293 294 295 294 292 290 287 286 287 288 285 285 283 282 280 281 279 283 285 284 285 286 285 286 276 276 278 282 286 287 288 289 289 288 288 288 289 290 290 289 290 289
316 316 316 316 317 318 319 319 320 321 322 321 323 322 320 320 320 319 321 320 321 322 322 319 299 294 293 290 296 300 300 299 296 298 295 296 297 296 296 296 294 292 296 295 294 295 295 294 296 293 292 290 288 290 286 282 283 284 282 279 274 276 276 280 283 283 285 285 286 286 277 280 284 287 288 286 287 286 286 287 286 287 288 289 290 290 291 291
315 315 316 317 318 318 318 319 320 321 321 321 321 321 320 319 320 320 321 319 320 321 321 312 301 302 291 294 298 299 314 296 297 297 294 296 294 296 296 296 295 293 294 294 294 295 295 294 292 288 288 288 286 285 279 278 278 278 279 272 275 274 277 283 283 283 283 286 284 283 274 278 285 287 287 286 286 283 285 285 285 286 288 289 290 290 291 292
315 315 316 317 318 317 318 319 320 319 319 320 320 320 320 319 319 320 321 317 317 320 305 303 298 292 288 289 297 305 294 294 297 296 294 295 294 295 294 293 293 293 296 295 296 297 296 295 290 288 287 287 285 277 276 275 274 277 278 270 273 274 276 280 281 281 283 283 283 284 281 283 284 287 289 289 286 285 284 285 285 286 287 289 289 290 291 291
315 315 316 317 317 317 319 319 319 319 319 320 320 318 317 318 319 320 319 315 307 309 300 299 294 296 291 294 297 294 291 293 294 295 296 295 295 294 295 293 292 294 294 296 295 296 293 289 286 285 284 284 281 278 272 270 274 273 275 276 275 275 279 277 280 282 283 282 282 280 281 280 285 286 287 288 285 284 284 284 286 286 287 287 287 288 288 289
315 316 316 317 316 318 319 319 318 317 319 319 319 318 308 316 316 312 306 304 301 300 299 297 293 294 291 294 291 293 293 290 296 295 294 296 294 295 294 294 291 291 289 294 294 292 290 285 284 281 281 283 284 283 277 270 275 276 278 277 277 276 277 278 278 281 283 282 281 280 278 281 282 284 286 286 285 284 284 284 284 285 285 285 285 285 286 286
315 316 316 317 317 318 319 320 318 318 318 318 319 319 315 314 299 297 298 298 297 291 288 291 290 284 283 292 291 292 294 296 295 294 296 298 295 293 293 292 290 290 289 286 289 287 286 283 283 280 281 281 281 280 277 278 279 279 278 275 276 276 278 278 280 279 281 281 281 278 280 281 282 284 286 286 284 283 283 284 284 284 284 284 284 284 284 285
315 316 316 317 318 318 318 318 318 318 318 308 298 301 295 293 288 291 295 296 291 291 291 291 291 291 290 291 293 296 296 295 292 293 295 296 294 293 290 290 290 291 285 284 285 286 283 281 277 275 279 280 280 280 281 280 281 280 278 277 278 277 278 279 279 280 279 280 276 277 276 278 281 283 284 283 283 283 282 282 282 283 283 283 283 283 283 284
315 316 315 316 317 318 318 317 318 318 312 296 296 295 293 289 286 289 288 290 290 289 292 291 292 292 292 291 291 294 290 291 289 292 295 296 292 291 290 288 286 287 283 282 284 285 284 281 279 279 280 280 281 280 279 280 280 280 278 276 277 275 274 280 280 280 280 281 277 276 278 281 282 282 282 282 282 281 281 281 281 282 282 282 282 282 282 283
315 315 315 316 317 318 319 317 317 317 310 298 297 294 292 291 294 294 289 288 293 291 291 290 290 291 290 290 291 292 289 288 290 293 296 298 294 289 288 286 283 283 282 281 281 278 280 280 283 281 280 279 278 278 279 281 280 277 278 274 272 275 277 280 279 279 281 281 279 276 278 280 281 281 281 281 281 281 282 281 281 281 281 281 282 282 282 283
314 315 315 315 317 318 318 317 316 312 295 296 295 293 296 298 295 293 292 288 288 291 291 289 291 288 290 292 292 291 288 288 284 291 293 293 291 290 284 283 281 280 285 281 280 275 277 278 283 281 279 281 280 278 278 277 278 277 275 275 274 276 276 276 279 277 282 279 276 277 276 279 277 277 280 281 281 281 282 282 282 282 281 281 281 281 282 282
314 314 315 316 317 318 318 316 311 301 295 293 293 295 296 293 295 297 293 289 286 289 293 292 291 289 289 291 293 291 286 287 285 289 294 290 288 287 284 283 280 280 281 279 280 281 280 284 282 279 277 279 281 277 279 279 279 277 276 273 274 276 278 277 280 280 279 277 278 278 276 273 274 276 278 280 281 281 281 281 282 282 282 282 282 282 282 282
313 314 315 317 316 317 316 312 300 295 294 294 295 296 294 294 295 296 292 286 283 286 292 290 288 291 292 295 291 292 289 288 288 288 291 290 290 285 285 284 280 280 280 280 278 279 280 281 281 280 277 277 278 279 279 279 277 277 275 278 279 278 277 278 278 277 275 272 278 279 270 271 274 276 275 278 279 279 280 279 280 280 281 281 281 281 282 282
313 315 316 317 316 316 315 303 298 295 297 296 296 296 293 293 294 292 284 276 275 284 289 286 294 289 293 291 291 287 288 285 289 290 293 291 291 289 282 281 283 281 281 281 281 280 282 281 280 281 279 277 277 278 279 278 275 274 278 276 278 278 277 277 276 276 270 271 274 278 273 265 273 274 275 276 277 277 279 279 279 280 280 281 281 281 281 282
314 315 316 316 316 316 300 296 296 297 297 300 298 293 293 293 293 299 295 271 273 284 283 290 291 289 296 288 287 287 278 282 289 288 290 290 289 291 285 281 278 282 281 281 276 279 281 280 280 278 277 277 278 279 279 279 275 276 276 278 279 278 277 276 275 275 275 275 277 276 272 269 269 273 274 276 276 276 276 277 278 279 279 280 280 281 281 282
314 315 315 315 314 310 302 296 295 295 296 300 294 293 292 293 295 292 277 266 269 286 284 286 292 292 291 289 289 286 285 285 282 287 289 289 288 286 284 282 279 280 280 276 271 279 281 281 280 281 277 279 279 280 280 280 278 278 279 279 279 278 277 276 274 274 273 271 272 272 277 270 265 272 275 275 273 274 275 276 277 278 278 279 280 281 281 282
315 315 315 314 314 310 297 295 294 298 297 293 292 294 295 291 293 287 274 269 281 283 294 287 297 289 286 287 284 281 284 284 283 286 288 287 292 286 282 281 279 281 280 280 277 276 278 282 282 282 279 279 279 279 279 280 279 278 279 279 275 276 276 276 272 274 266 269 266 271 276 268 269 273 273 274 273 273 273 275 276 277 277 278 279 280 281 281
316 316 315 314 304 301 299 293 294 295 291 292 293 293 291 293 287 277 269 267 283 277 286 287 286 283 280 282 279 282 284 282 282 284 285 283 288 287 283 283 279 276 277 278 277 280 279 283 284 283 281 282 281 281 280 279 281 280 278 279 279 272 272 272 269 266 264 261 263 270 272 273 268 272 270 271 273 272 274 275 276 277 277 278 279 279 280 280
315 315 314 310 296 297 298 292 295 292 293 295 294 293 291 283 272 265 264 274 285 284 282 282 281 281 279 280 279 281 282 279 283 281 281 283 285 285 283 280 281 276 278 281 278 279 280 281 282 282 284 282 281 281 279 278 279 279 277 276 277 274 272 267 266 263 263 263 270 269 273 272 265 268 272 274 273 273 272 272 274 275 276 277 278 279 279 279
312 311 310 301 299 292 295 293 294 293 293 292 291 286 287 279 276 274 274 285 279 278 277 278 279 278 278 278 278 280 279 278 280 280 278 277 278 280 279 276 272 271 271 273 276 278 277 280 279 279 284 282 279 279 279 277 277 281 278 277 272 266 266 264 267 265 261 264 273 271 271 271 271 271 273 274 274 273 273 275 275 275 276 277 278 278 279 279
311 310 309 303 298 296 294 291 292 293 292 291 286 280 275 271 268 268 269 275 278 280 279 281 279 278 276 276 278 278 279 279 280 279 280 278 276 277 278 279 278 275 272 272 272 273 275 276 279 278 280 282 280 278 278 277 277 278 276 270 266 263 260 260 262 259 259 270 272 272 270 270 272 270 273 273 275 276 275 275 275 276 275 277 278 278 279 280
310 307 297 298 298 294 295 294 292 293 289 290 283 281 280 275 269 284 272 273 278 278 279 277 278 276 276 277 278 277 278 279 279 279 279 277 277 276 276 279 279 277 272 273 275 270 273 271 276 278 277 280 280 279 280 278 277 276 275 277 267 267 262 262 257 264 268 269 274 271 267 259 264 269 274 274 275 275 276 275 275 277 277 278 279 279 280 280
306 299 296 291 291 291 293 293 293 293 287 287 284 275 274 267 265 269 270 273 275 278 280 279 276 274 276 274 275 277 279 276 278 276 277 277 277 274 277 277 279 277 274 272 267 269 274 272 279 279 280 280 281 280 279 279 274 276 276 275 271 271 270 265 264 263 265 268 268 266 268 265 269 274 276 275 275 276 276 276 276 277 278 278 278 279 280 280
304 294 291 290 292 291 290 293 287 287 287 285 284 276 271 270 272 274 276 280 278 278 278 278 275 276 272 274 272 275 279 277 278 274 274 276 277 277 278 277 278 278 276 271 267 269 270 273 276 280 278 280 282 281 279 280 270 276 276 269 274 276 275 264 269 270 267 264 267 264 269 273 271 273 272 274 273 274 276 276 276 276 277 278 278 279 279 280
292 291 295 291 291 291 292 292 290 288 290 285 281 271 271 272 278 275 283 280 279 279 273 272 274 275 272 273 271 273 278 278 275 275 276 276 276 278 278 279 279 279 279 278 271 270 269 274 279 277 278 278 278 278 280 278 279 274 268 274 278 277 273 269 264 259 260 261 264 266 270 271 266 266 272 272 273 275 274 275 275 276 276 276 277 277 278 279
291 291 290 291 291 291 291 289 287 287 285 287 277 283 275 278 280 279 279 279 280 278 273 273 274 278 270 272 277 274 278 277 280 276 274 274 276 279 276 278 279 279 278 276 274 273 274 267 274 275 276 278 277 277 276 277 278 281 278 277 274 264 268 267 260 261 260 262 265 267 269 271 265 269 271 271 272 273 274 275 275 275 275 276 276 277 277 278
285 286 286 291 293 291 291 288 291 289 286 280 270 281 281 278 279 279 280 281 279 277 275 276 274 275 276 271 272 270 271 274 274 276 273 276 273 279 277 278 280 278 277 279 275 276 274 268 273 275 277 278 276 274 273 272 274 277 277 276 275 274 267 264 267 264 264 265 264 266 269 268 267 267 271 272 273 274 273 274 274 274 275 275 276 276 277 277
292 286 284 292 293 289 289 291 292 286 283 278 272 274 279 281 281 280 277 280 281 276 276 277 277 272 273 276 275 273 273 275 276 274 276 276 277 279 278 279 278 279 278 277 277 278 274 274 266 275 276 274 275 274 273 273 269 272 271 267 270 265 272 270 265 264 266 261 262 265 264 269 274 274 275 273 274 274 274 273 274 275 275 276 276 277 277 278
281 283 285 291 293 289 292 294 284 278 276 276 277 279 279 282 281 280 277 277 282 283 278 278 277 276 277 274 273 276 274 274 274 274 276 275 275 273 277 277 277 277 278 276 273 274 268 270 268 274 275 274 275 276 275 275 275 273 269 266 269 263 266 265 266 262 261 264 265 264 263 271 276 277 272 274 275 274 276 275 274 275 275 275 276 277 277 277
281 277 285 295 292 291 293 285 275 275 278 274 277 281 283 289 280 280 279 279 279 282 279 278 278 277 276 278 278 275 277 273 273 273 274 274 279 276 276 274 278 277 275 273 273 274 276 271 272 269 273 276 277 275 278 278 277 275 274 270 269 264 260 263 263 268 270 271 271 270 265 267 276 275 274 276 276 276 276 275 274 275 275 275 276 276 277 277
280 285 292 293 290 291 290 276 277 278 274 280 281 281 279 279 278 280 281 281 282 280 280 280 281 279 278 280 279 278 277 271 275 277 278 277 276 278 276 277 278 278 275 270 273 277 282 265 266 274 275 276 275 275 277 274 276 272 273 273 269 265 266 266 268 270 266 268 266 264 263 268 275 276 277 277 278 278 277 276 274 274 275 275 275 276 276 276
281 286 290 294 292 291 288 277 274 274 276 282 279 280 278 282 280 280 280 280 280 279 280 280 280 281 281 279 278 280 280 271 276 277 276 275 278 277 277 277 278 278 274 274 273 278 268 270 271 265 267 273 275 272 274 275 275 270 267 270 267 267 265 265 268 265 264 269 267 263 259 264 275 278 278 277 278 276 275 275 275 274 274 275 275 276 276 276
282 281 283 289 293 290 281 275 280 276 275 275 275 276 276 280 280 282 282 281 280 278 277 279 281 280 280 279 278 278 278 277 274 274 273 271 276 275 274 275 275 277 279 281 283 279 273 271 265 262 262 263 263 264 267 270 271 270 271 269 267 264 266 268 265 266 264 268 267 263 262 270 275 276 275 276 276 274 275 275 275 275 274 274 275 276 276 276
280 282 280 285 286 284 280 278 278 277 271 270 275 276 276 277 281 277 279 283 280 281 279 281 279 279 277 277 276 276 278 279 277 273 272 273 271 275 274 277 277 278 281 281 279 275 268 270 271 265 268 266 270 272 277 277 275 268 266 265 266 267 269 270 270 267 264 266 264 266 268 268 270 272 273 274 274 272 272 273 273 274 274 275 276 276 276 276
281 282 274 277 278 283 278 279 278 276 275 276 275 276 273 275 275 279 279 281 282 281 281 278 279 278 277 278 276 275 276 278 274 275 273 270 270 272 276 277 278 280 281 279 277 266 263 267 269 272 269 273 276 276 276 275 271 270 264 265 267 269 269 269 267 264 270 266 262 269 270 267 268 271 272 272 272 273 273 273 273 274 274 275 275 276 278 276
281 280 281 283 283 279 275 279 278 279 278 276 274 277 275 274 276 274 278 282 281 279 281 278 277 277 278 279 278 272 277 276 271 272 270 270 268 275 273 276 277 279 278 276 273 272 266 267 268 267 266 270 274 275 275 272 271 269 268 268 266 268 269 267 266 269 269 265 263 268 269 267 269 271 272 272 273 272 272 273 274 274 275 275 275 275 275 275
281 280 281 282 279 277 277 280 280 280 281 277 277 278 273 274 276 278 277 280 276 278 279 274 278 277 278 276 278 274 274 271 270 268 269 270 270 273 269 271 278 277 277 272 273 264 267 264 264 264 270 271 273 273 273 272 270 268 265 269 271 269 269 269 269 270 270 268 269 269 269 269 270 271 272 273 274 273 273 274 275 274 274 274 274 274 274 275
283 280 281 279 279 275 273 273 277 279 281 280 275 280 277 276 278 279 278 278 273 278 278 278 278 278 277 277 278 275 277 278 276 271 270 271 275 269 268 270 272 275 276 271 270 271 274 271 276 266 268 269 271 271 270 273 269 267 270 270 271 271 271 271 270 270 270 269 270 268 267 266 271 274 273 273 274 274 274 273 273 274 274 274 274 274 275 276
280 279 286 284 277 276 276 272 276 277 273 278 275 279 280 277 278 278 280 280 280 279 280 279 278 278 276 276 277 278 279 278 278 278 278 276 273 274 272 271 276 273 271 270 267 270 272 271 268 264 267 267 272 273 273 272 269 266 268 270 271 270 268 269 267 270 268 266 267 266 264 265 271 273 273 273 273 272 272 272 273 273 274 274 274 275 275 276
278 280 280 282 278 279 276 272 276 275 276 278 279 281 280 281 278 280 280 280 276 278 280 281 279 279 276 275 277 279 279 278 279 278 277 277 278 277 277 276 277 274 268 265 266 270 264 266 269 263 267 267 273 273 271 270 267 262 263 270 271 271 272 272 272 272 271 270 265 263 264 270 271 272 270 271 272 272 272 272 273 273 274 274 275 275 276 277
Wind_Speed
10 10 11 11 11 11 11 12 12 12 11 10 10 10 10 9 9 8 8 9 9 9 10 9 7 6 6 5 5 7 6 7 6 6 9 3 5 7 9 11 10 7 5 3 7 10 6 6 9 11 6 3 3 1 1 3 1 1 1 2 3 4 1 5 5 7 2 1 5 4 1 1 8 3 2 1 1 2 6 7 5 4 8 8 5 1 3 3
9 9 10 10 10 11 11 11 11 11 11 10 9 9 8 8 8 8 9 9 10 10 10 9 8 7 6 5 4 6 7 4 6 7 3 4 3 5 9 9 6 4 4 4 6 3 5 6 4 6 4 1 2 0 1 0 1 2 2 2 7 4 6 5 3 4 0 8 5 5 2 3 8 1 3 3 6 3 7 8 2 7 11 11 11 9 1 4
8 9 9 9 10 10 10 10 10 11 11 11 10 9 9 9 10 10 10 10 10 10 9 8 6 5 5 4 4 4 1 3 5 6 4 3 4 8 9 8 3 3 2 0 0 1 1 0 1 2 3 1 7 1 4 1 1 1 3 3 5 6 4 5 4 5 5 5 9 7 3 3 4 0 1 2 9 5 8 11 5 4 12 10 8 5 3 4
8 8 8 9 9 9 10 10 10 11 11 11 11 11 11 11 11 11 10 10 10 10 9 8 8 7 6 7 6 1 4 4 3 3 4 6 7 9 10 8 3 3 3 4 2 2 3 5 5 4 1 4 3 1 1 2 1 1 2 3 2 2 1 3 4 7 8 3 4 4 1 4 5 5 0 1 6 11 8 7 9 11 11 11 8 6 3 5
7 8 8 8 9 9 10 10 11 11 11 11 12 12 12 11 11 11 10 10 11 11 10 9 9 9 7 6 6 1 4 3 1 2 7 7 8 10 10 5 5 2 2 5 4 4 6 4 1 4 3 0 3 1 1 1 1 3 5 2 2 1 2 8 6 6 4 2 2 4 5 6 0 0 2 2 5 10 6 7 3 8 10 8 11 8 2 5
7 7 8 8 9 10 10 11 11 11 11 11 11 11 10 10 10 10 10 10 10 10 10 9 9 9 5 4 2 5 3 1 1 4 6 9 10 8 8 3 5 3 3 4 1 2 2 4 3 2 2 1 1 1 1 1 1 2 3 2 3 3 3 2 1 3 2 3 4 4 3 4 1 5 2 3 9 9 11 9 8 6 9 9 5 6 6 6
7 8 8 9 10 10 11 12 12 12 11 12 11 10 10 10 9 9 9 9 9 9 8 8 8 8 7 2 3 11 7 0 1 7 7 9 9 7 4 5 5 3 3 2 4 1 2 2 3 1 2 2 0 1 0 0 3 2 4 1 4 5 6 3 5 5 5 3 8 2 4 5 5 10 1 3 12 13 15 13 10 12 11 7 7 9 10 10
7 8 9 10 11 11 11 12 11 12 12 12 12 11 10 10 9 9 9 9 9 9 7 7 6 5 4 2 1 3 4 1 6 4 7 9 9 8 1 1 6 3 7 4 1 1 1 3 2 2 3 1 1 1 1 1 1 3 3 1 3 1 5 4 5 8 5 8 7 2 3 9 2 3 4 10 14 12 9 6 8 9 9 7 6 11 10 10
8 9 9 11 11 11 11 11 12 12 12 12 12 12 10 9 8 8 8 7 7 7 7 5 3 1 5 5 3 5 4 4 7 5 6 9 10 8 5 2 5 4 3 2 2 2 2 1 0 3 1 0 2 1 0 0 4 4 4 0 3 4 5 5 7 4 5 5 2 0 4 7 6 2 3 14 12 8 7 9 8 8 11 11 9 9 8 10
8 9 10 10 10 11 11 11 12 12 12 11 11 11 10 9 8 7 7 6 6 6 6 4 5 3 5 3 3 10 3 5 4 2 5 6 8 9 8 2 3 3 2 4 2 4 2 3 2 4 5 2 3 1 1 1 2 3 2 3 4 8 5 3 1 4 7 3 0 2 6 5 1 2 5 3 5 6 10 11 10 8 11 12 10 9 6 8
9 10 10 10 10 10 11 11 12 12 12 11 11 10 9 8 7 6 5 6 5 6 5 4 6 4 3 3 7 5 1 3 0 4 6 5 9 9 6 4 1 2 2 2 2 1 0 3 3 3 0 1 4 1 1 1 1 1 1 5 4 7 3 5 3 3 6 2 3 1 7 2 3 1 5 6 5 7 9 15 13 7 6 9 11 11 7 6
9 10 10 10 10 11 11 12 12 12 11 11 10 9 8 7 7 6 4 5 6 4 3 4 4 4 4 6 7 2 2 3 4 4 2 6 7 8 4 2 1 0 1 1 1 1 3 2 5 0 0 0 1 0 0 1 1 0 4 3 5 5 2 1 6 5 3 2 8 2 3 2 1 1 5 6 7 9 11 12 14 16 14 9 8 9 6 7
9 10 10 11 12 12 12 13 12 12 11 11 10 8 7 6 7 5 5 4 2 3 3 3 3 4 2 5 1 4 3 2 4 7 6 5 6 2 0 1 2 1 1 1 0 1 2 5 3 4 0 1 0 0 1 3 2 1 4 1 6 10 4 3 4 7 5 4 8 8 4 6 5 9 8 6 12 15 16 14 13 12 12 12 11 10 11 5
9 10 11 12 12 13 12 12 11 11 11 11 10 8 6 5 5 5 4 3 3 0 2 3 3 3 2 0 5 3 2 1 3 9 6 6 8 5 2 4 2 3 0 1 1 1 3 2 8 5 2 4 2 3 2 5 5 1 3 5 3 6 3 5 5 8 4 3 10 4 1 9 7 11 3 4 9 10 11 12 12 11 11 12 11 11 12 10
10 11 12 12 12 12 12 11 11 10 10 10 9 8 6 5 4 3 3 2 1 1 3 3 4 1 4 1 4 7 2 2 8 8 4 8 6 4 5 4 3 4 1 2 2 2 4 3 6 6 2 1 2 1 3 4 6 4 6 5 5 6 8 13 5 6 7 5 7 3 1 6 13 13 3 3 7 5 8 8 10 13 15 16 14 14 14 14
10 11 11 12 12 12 11 11 10 10 10 11 10 7 5 5 7 1 3 3 0 4 2 1 5 6 4 3 1 3 4 4 9 6 3 2 1 2 5 4 2 4 3 3 3 2 6 10 9 0 4 5 11 5 6 5 5 6 6 4 5 4 6 10 2 2 3 3 3 6 5 8 8 9 16 13 11 11 10 14 14 16 15 16 17 17 18 21
10 11 11 11 11 11 10 9 10 11 11 10 10 5 3 6 6 6 5 5 4 1 2 1 0 1 4 4 1 5 3 3 5 5 7 1 2 1 4 4 4 4 3 3 6 2 8 6 2 2 5 8 1 3 2 8 7 5 4 1 2 3 10 7 7 3 9 6 5 4 1 6 9 13 14 14 12 16 16 17 18 17 16 17 16 17 18 19
10 10 10 11 11 10 9 10 11 12 12 11 5 4 1 5 2 3 6 6 2 5 3 2 3 2 1 6 4 8 4 6 8 8 6 3 4 6 7 5 2 3 4 2 5 6 4 3 5 3 2 8 11 11 11 2 1 6 7 7 7 2 4 7 6 7 15 4 3 5 3 10 9 10 11 10 14 14 17 15 17 19 20 20 19 18 20 19
9 10 10 11 11 10 9 9 11 13 13 12 3 3 2 2 3 6 8 6 5 6 6 7 8 5 1 7 7 6 6 5 4 9 16 13 4 2 3 3 5 2 1 5 3 8 7 4 7 9 12 11 9 5 3 3 1 5 3 4 4 6 8 8 6 3 5 10 10 2 7 12 14 12 12 14 13 16 16 19 20 20 19 19 19 19 18 18
9 10 11 11 11 10 9 10 11 12 11 5 2 1 3 3 5 4 8 8 8 4 3 1 0 3 3 4 7 8 5 5 3 11 11 3 3 3 4 3 4 9 7 3 9 4 0 11 7 2 6 6 4 2 3 4 2 2 1 1 7 6 10 6 5 5 3 5 3 2 3 6 10 7 9 10 12 20 21 20 18 18 18 18 19 19 19 19
9 10 11 11 10 10 9 11 11 10 5 3 3 5 1 1 2 3 1 1 1 1 2 0 1 0 2 3 4 8 6 4 3 9 11 5 3 2 8 6 9 10 5 2 1 3 6 10 6 3 4 4 5 3 2 1 2 2 1 1 7 3 7 9 4 1 3 8 6 3 6 11 8 5 9 10 20 20 17 18 19 18 17 16 18 19 18 15
9 10 11 11 11 9 9 11 11 8 4 4 6 5 1 1 0 0 2 3 2 0 1 1 1 3 4 3 2 1 4 2 7 18 12 11 9 7 6 10 5 6 6 4 2 8 8 6 4 4 3 1 1 2 1 0 1 1 1 1 2 6 7 11 1 1 1 6 9 3 7 12 8 5 8 14 13 10 11 12 12 16 17 17 17 17 18 20
9 10 10 11 10 10 10 11 10 5 4 6 4 3 2 0 2 1 2 4 3 1 2 2 4 5 5 3 1 2 5 14 5 11 15 8 7 8 2 7 7 3 6 9 7 3 6 3 4 1 0 1 1 3 3 2 3 1 2 2 6 5 7 11 2 3 9 1 4 4 4 9 4 6 13 10 10 8 9 12 13 14 16 15 15 13 16 18
9 9 10 10 9 9 9 10 5 7 5 4 5 2 0 1 0 1 1 0 1 2 0 0 1 1 4 4 4 4 5 2 3 17 10 5 6 2 5 4 5 6 5 4 6 8 3 1 0 1 4 4 3 3 6 9 10 2 3 2 3 6 5 6 10 9 8 1 2 7 1 2 4 2 6 7 4 10 13 12 16 15 12 8 8 13 15 16
8 9 9 9 10 9 10 6 7 1 1 1 2 0 1 0 1 1 1 1 3 3 3 0 4 2 3 0 4 2 2 0 3 2 3 5 6 4 1 1 2 3 2 2 1 5 3 1 1 2 4 6 5 6 4 4 8 9 4 4 3 5 7 8 6 10 6 2 0 5 5 1 1 6 9 6 11 18 12 17 18 16 15 15 16 15 13 12
8 8 9 9 10 10 7 3 1 2 1 1 0 0 2 1 0 1 7 4 2 4 5 6 1 5 2 6 7 1 0 4 1 3 1 3 3 2 1 4 2 4 3 1 1 1 1 2 4 1 1 4 4 3 2 3 5 5 5 4 2 5 5 8 8 5 6 5 3 2 2 5 4 6 8 6 13 14 13 16 16 15 15 15 14 15 15 16
8 8 8 9 10 6 4 0 0 1 1 1 0 2 2 1 1 1 1 5 6 2 4 4 3 3 3 3 6 1 5 6 7 2 6 5 3 1 4 4 3 1 2 1 3 1 2 3 6 4 4 4 6 11 3 2 3 6 2 1 8 9 9 7 1 2 6 2 6 2 2 2 6 0 3 2 7 12 15 15 15 15 17 16 14 14 15 15
7 7 7 6 8 6 2 3 1 1 0 0 1 0 1 0 1 3 5 4 3 4 4 5 1 3 6 8 10 7 4 6 4 4 4 7 1 4 8 0 3 1 2 3 6 4 2 5 4 6 4 4 7 1 3 1 1 6 5 4 11 8 6 2 1 3 2 3 8 3 0 1 4 4 3 4 8 13 14 13 13 15 16 16 15 14 15 14
7 6 6 4 6 7 5 2 3 1 0 2 1 0 1 2 5 6 3 4 2 2 4 1 2 4 11 7 8 2 2 4 3 4 9 3 8 2 7 2 2 1 0 4 3 5 2 1 1 2 1 5 5 4 2 6 2 5 5 5 1 2 2 2 2 0 3 2 7 3 0 2 8 4 9 5 4 12 12 10 11 11 14 16 16 15 14 13
7 6 5 4 3 3 3 2 4 0 2 2 2 2 2 2 2 2 3 3 1 2 2 3 5 7 4 5 3 8 7 4 2 7 6 5 12 7 3 1 1 2 3 5 3 2 2 3 3 2 1 1 4 7 3 5 5 7 4 6 7 3 2 2 5 1 2 1 6 3 2 1 9 2 4 8 6 4 7 7 10 11 12 16 13 14 12 13
5 5 5 2 3 0 0 2 3 1 2 1 1 3 2 8 3 5 2 1 1 2 2 4 3 4 8 9 7 6 2 3 8 5 5 3 12 7 4 1 5 4 8 10 6 10 2 1 0 1 1 1 1 8 1 1 2 3 5 4 9 4 5 3 4 3 1 7 7 4 2 1 7 3 2 4 3 1 3 6 12 14 10 14 11 13 11 10
6 11 10 9 0 1 2 1 1 0 1 1 2 4 3 1 8 7 1 5 1 4 2 5 2 2 5 1 2 6 5 7 3 6 6 5 7 12 9 7 4 5 6 5 8 8 4 2 2 3 2 3 3 1 6 4 6 10 7 9 9 8 8 9 6 8 2 7 8 0 0 4 7 1 2 0 3 3 5 4 9 13 11 14 13 13 11 9
6 10 13 9 1 4 2 0 1 1 1 2 4 3 4 8 3 2 2 5 0 1 2 3 5 5 5 1 6 4 2 5 5 3 1 1 6 2 2 7 2 2 4 3 2 7 7 4 3 5 2 1 1 8 11 9 6 9 6 3 6 7 5 8 6 3 5 8 6 2 1 6 2 2 3 2 3 1 3 4 4 9 6 13 12 10 12 10
5 3 7 2 6 2 0 2 1 0 2 3 2 5 10 10 1 1 1 1 2 2 2 2 5 4 3 5 3 4 6 1 6 5 4 2 7 7 7 7 8 8 3 1 6 2 10 9 5 4 3 1 1 2 1 5 6 3 4 1 2 3 2 7 3 9 13 14 18 1 4 5 3 1 8 6 4 1 2 4 4 6 5 8 9 8 12 12
10 10 6 1 2 4 3 0 2 1 4 7 14 8 10 1 1 1 2 3 2 3 1 1 3 3 3 3 4 2 1 3 3 4 7 6 5 1 4 5 6 3 0 2 1 1 1 5 11 0 4 1 5 0 1 3 1 2 2 3 6 7 5 4 7 5 8 10 11 4 5 1 1 0 4 3 2 1 3 4 4 7 9 8 11 11 12 11
4 2 2 3 3 5 2 1 1 2 6 10 13 11 6 1 0 1 0 1 1 2 7 5 3 8 3 5 1 4 6 1 5 3 2 3 1 2 1 1 2 3 4 2 1 2 4 4 3 9 3 1 1 0 1 1 5 5 3 3 5 3 7 2 5 2 2 2 10 1 7 1 2 3 5 4 4 5 5 8 10 13 14 14 13 12 11 13
2 3 6 3 4 5 3 0 1 5 9 11 12 4 1 1 3 2 2 0 1 0 1 4 6 4 5 5 3 7 5 2 1 3 4 1 1 1 1 0 2 2 1 1 3 3 0 10 10 2 5 3 1 1 1 1 1 2 3 4 7 3 3 2 4 4 3 6 8 3 14 12 2 9 4 6 8 12 15 16 15 15 18 18 16 15 15 13
1 2 1 4 5 4 1 2 3 6 7 15 9 6 1 1 1 2 0 1 0 1 4 3 0 4 1 1 7 6 8 5 10 5 1 2 1 1 3 1 1 2 3 2 1 2 1 6 6 1 3 10 3 1 3 1 1 1 1 3 5 5 9 4 2 6 9 9 10 6 11 13 1 6 6 10 12 14 16 14 17 21 22 21 18 22 23 20
3 2 3 5 8 3 0 1 9 9 11 14 1 6 1 1 0 1 1 1 0 1 3 1 0 2 1 0 3 1 2 3 3 2 3 2 3 1 2 2 1 1 2 1 1 1 1 1 8 2 3 8 5 5 7 5 4 2 3 6 3 1 3 6 3 3 1 13 9 11 8 16 1 4 3 6 8 9 14 13 16 18 20 17 17 18 18 18
2 2 4 0 9 4 0 1 10 11 12 10 2 1 1 0 1 1 2 1 1 2 1 1 0 1 2 1 1 3 2 0 1 2 2 2 1 2 3 3 1 6 3 1 1 0 1 1 4 7 2 4 7 3 3 3 3 7 9 4 6 2 4 4 1 1 4 5 6 13 13 10 2 3 1 3 6 7 10 13 15 17 18 19 19 18 16 17
1 4 1 3 11 3 4 17 16 10 8 0 1 2 0 0 0 1 1 0 0 1 1 1 1 1 1 3 2 0 1 1 1 1 0 2 2 4 2 1 4 6 2 1 4 2 1 1 4 9 11 7 5 2 3 4 4 4 4 3 3 5 8 11 13 2 3 4 8 8 14 12 2 3 3 3 4 7 10 14 17 18 21 18 17 15 15 16
2 3 4 9 12 3 9 12 5 1 6 4 2 0 1 2 1 2 1 0 1 1 1 4 0 1 0 1 1 1 1 3 1 0 1 2 1 3 1 2 4 2 1 1 1 2 1 1 0 8 6 7 4 5 8 12 16 12 8 3 2 2 3 1 7 6 5 4 9 11 11 10 3 2 2 4 8 9 12 15 16 18 18 18 15 17 17 16
5 3 1 7 6 5 16 8 3 7 4 0 2 1 0 1 1 2 1 3 1 1 1 2 1 0 1 0 1 1 0 1 1 2 0 0 0 0 5 6 6 5 1 2 0 1 3 1 5 8 6 3 5 2 4 2 9 10 9 5 4 3 1 4 6 5 5 10 4 6 9 12 1 4 2 7 13 8 12 16 20 18 18 16 19 20 19 18
3 4 4 4 6 5 12 6 3 3 3 0 2 0 1 0 2 4 2 2 1 3 1 1 2 1 1 0 0 1 1 3 2 1 3 0 1 1 5 5 6 3 2 0 1 5 2 2 3 5 8 13 9 0 1 2 7 5 2 3 2 1 4 3 3 2 3 4 8 10 13 15 5 15 19 20 19 12 13 19 16 22 18 17 19 18 17 19
4 1 3 7 13 11 7 3 8 7 1 2 1 5 5 1 1 1 0 1 0 0 0 1 1 2 0 0 0 0 2 1 3 1 0 1 1 1 2 4 5 1 3 3 3 4 0 2 3 3 6 11 13 13 13 13 6 2 3 7 3 7 8 8 4 5 5 8 15 9 16 15 18 20 22 23 17 12 16 18 19 18 18 20 18 19 21 19
3 5 7 8 9 9 7 2 6 7 6 1 4 1 1 2 0 1 3 1 1 0 1 1 1 0 1 2 2 1 2 1 1 3 4 3 3 1 1 4 4 1 3 1 4 1 0 0 1 2 1 7 10 8 7 6 7 5 7 4 6 4 3 2 3 5 8 13 13 11 12 25 28 24 24 22 12 18 20 21 22 20 21 20 18 18 19 21
2 6 1 2 5 10 5 6 4 3 2 2 3 1 6 1 3 2 4 0 0 0 1 4 2 3 3 4 3 2 1 3 2 0 1 4 2 2 1 2 3 2 5 1 1 2 2 1 2 1 4 6 10 12 9 4 5 2 3 4 2 3 2 4 5 7 13 13 16 11 22 23 25 26 22 15 15 17 21 22 18 19 19 22 20 21 25 22
6 1 2 1 4 2 5 5 5 5 3 3 1 0 1 1 3 1 3 1 0 0 0 0 6 3 0 0 0 2 8 7 3 4 5 0 4 4 2 1 2 5 2 1 1 2 1 1 3 5 8 8 12 12 5 1 3 4 1 1 4 3 3 6 4 9 12 9 17 25 26 25 22 22 16 16 18 20 23 21 22 21 21 18 22 23 25 25
5 3 2 2 3 1 1 1 2 5 8 3 2 2 1 2 2 0 0 5 3 3 4 2 7 5 2 1 1 1 1 5 6 2 1 4 4 5 4 2 2 2 4 3 4 1 1 0 4 5 4 7 10 4 2 2 3 2 0 2 4 5 6 4 10 10 12 16 21 23 25 26 21 16 15 17 18 18 18 18 18 20 21 23 20 21 22 23
2 4 1 6 8 4 1 1 1 4 7 3 3 1 1 0 0 2 1 1 3 3 2 2 6 7 2 1 1 1 1 1 3 5 1 3 7 1 1 2 4 4 6 3 1 2 7 7 10 4 5 5 4 2 2 6 4 4 2 2 8 12 12 9 10 12 15 16 17 22 23 22 13 11 16 17 20 19 23 25 24 23 26 25 22 23 25 19
2 1 5 10 6 4 2 3 2 3 3 6 5 1 1 1 1 0 1 0 1 1 2 1 4 5 1 1 2 4 4 4 4 8 7 2 4 2 1 1 3 4 6 7 5 7 8 7 0 2 8 4 1 8 7 12 2 2 3 5 10 13 11 12 9 10 15 22 26 23 20 17 13 13 16 20 20 21 23 22 22 21 25 27 24 26 22 20
4 1 5 8 7 2 2 1 1 3 3 1 1 0 1 1 0 0 1 1 1 2 2 0 1 1 3 3 5 3 1 3 6 3 0 3 0 2 3 1 1 0 2 2 1 4 2 4 8 6 8 8 14 10 15 10 2 0 1 1 8 14 17 18 12 13 15 19 20 20 20 15 16 21 23 20 18 23 23 20 22 23 25 26 26 20 16 15
Wind_Direction
340 339 340 340 343 346 343 343 344 338 335 334 328 316 310 309 309 315 325 332 328 329 328 324 325 328 326 335 344 349 39 84 42 37 53 222 220 259 301 300 302 320 352 19 6 38 353 5 8 337 18 57 322 65 289 49 10 57 78 117 263 209 163 212 202 192 211 282 285 323 196 269 303 330 275 345 301 254 285 266 268 282 258 239 263 121 95 113
337 338 338 339 342 344 342 339 332 327 326 319 315 307 309 313 324 336 341 339 337 331 328 326 330 340 342 341 347 13 73 64 60 52 39 256 252 301 312 314 314 341 325 36 41 57 50 347 338 22 40 50 317 65 359 312 53 93 114 103 234 185 240 163 205 223 289 273 257 265 263 211 260 344 297 348 284 333 320 280 195 260 265 269 271 250 127 122
334 337 337 337 338 335 330 324 323 322 321 318 317 321 327 336 345 345 342 341 335 328 321 314 327 323 335 345 336 15 40 22 38 22 313 330 314 325 328 328 3 11 70 358 203 117 79 237 292 50 4 117 9 283 30 320 23 207 125 247 247 212 248 222 211 255 199 268 292 294 304 161 255 161 297 238 290 307 266 281 314 253 274 279 266 289 203 174
333 333 333 333 328 325 323 322 320 321 318 318 321 332 338 346 345 341 338 335 326 323 319 319 325 338 351 352 344 63 73 63 31 276 267 305 335 334 334 341 117 88 83 68 156 116 123 78 56 67 29 66 315 21 46 314 60 269 88 198 235 203 332 277 191 239 256 185 267 269 355 320 275 222 316 236 348 296 276 240 225 268 275 282 284 280 205 210
330 330 328 322 322 322 321 320 319 318 319 323 331 337 342 341 339 335 333 329 325 320 320 317 327 336 336 336 325 135 74 54 277 248 259 333 343 348 343 4 106 66 105 144 89 50 69 73 86 37 73 281 0 13 9 327 112 119 210 199 172 145 277 258 234 249 227 188 247 287 324 267 73 87 230 197 235 265 268 283 191 236 265 274 290 297 210 224
329 322 320 321 322 323 321 321 320 320 325 329 334 336 337 336 331 332 327 322 316 313 314 318 314 312 328 335 48 63 91 77 297 297 327 336 349 352 348 44 100 100 96 48 99 39 59 350 64 28 7 45 351 73 288 183 12 246 310 266 214 207 234 273 304 252 178 274 237 287 244 324 31 290 235 186 217 249 260 271 295 275 267 268 277 283 268 234
321 319 321 324 326 325 324 324 322 324 330 335 333 334 332 332 327 322 321 316 311 309 309 307 298 300 293 327 49 71 81 229 339 264 352 337 339 357 340 39 59 71 85 65 18 70 48 53 78 168 107 59 319 164 235 282 353 152 246 331 297 174 219 252 285 322 292 260 259 190 343 308 310 318 80 273 255 249 271 288 295 284 284 292 279 262 254 247
323 322 326 328 328 327 324 322 325 331 333 333 331 329 329 325 326 321 323 325 316 300 298 292 286 279 296 46 63 6 43 326 271 275 332 339 335 345 22 352 43 71 57 75 16 71 111 50 81 154 65 114 211 144 329 300 26 154 270 250 253 169 243 300 296 301 294 262 269 331 292 260 231 237 11 278 276 280 281 303 291 296 303 296 266 269 259 257
324 326 327 329 328 324 323 326 330 332 332 328 328 321 319 320 324 320 314 312 303 300 297 296 296 38 95 83 102 66 353 243 217 294 2 345 328 348 22 333 18 67 136 66 11 128 129 272 99 184 275 174 187 143 312 117 320 189 216 175 297 278 317 317 324 302 290 281 141 83 253 279 269 220 249 253 277 295 323 319 307 312 311 305 293 276 266 262
327 329 331 329 326 326 326 328 330 329 325 321 314 310 310 316 318 316 301 301 304 301 313 341 342 53 53 79 46 64 272 245 292 313 342 340 340 356 38 79 31 48 42 334 17 54 73 213 141 179 123 88 155 227 133 114 245 161 249 228 272 285 339 305 285 294 302 225 87 357 295 301 317 50 294 292 256 328 333 315 314 325 312 308 305 299 279 265
330 332 330 328 327 326 328 328 328 324 320 315 308 304 306 304 298 285 289 292 298 311 333 2 11 49 39 74 82 76 238 17 7 340 344 7 353 0 323 334 68 57 98 12 44 229 161 167 169 106 74 228 139 279 169 221 122 24 245 326 308 324 270 272 284 293 346 14 94 58 293 315 332 108 232 284 339 3 337 321 324 332 311 311 314 316 311 282
331 331 328 328 326 328 328 328 325 321 312 308 308 306 299 288 283 280 286 289 298 307 360 39 36 99 76 70 72 67 242 250 345 326 17 20 342 300 272 226 69 86 133 55 314 278 198 169 118 68 357 171 315 112 299 246 51 129 45 346 299 340 61 342 0 338 357 334 356 284 335 37 1 210 248 299 333 345 343 337 343 343 338 331 320 315 321 305
330 330 331 331 332 332 330 328 323 316 311 311 312 306 299 292 287 286 274 297 285 295 30 49 47 74 89 33 328 254 328 311 343 357 351 16 326 9 84 98 51 225 190 131 225 253 164 131 117 78 215 89 186 24 194 58 342 109 42 72 351 2 3 8 338 359 12 337 4 4 6 270 272 253 296 336 6 353 348 341 340 335 334 335 340 338 330 330
332 335 336 336 334 332 329 324 318 315 312 315 312 310 295 280 267 254 262 254 285 231 82 54 78 62 80 236 276 266 296 272 27 9 341 313 6 325 19 33 53 35 58 131 59 92 80 92 90 105 107 55 341 327 37 337 17 38 299 70 58 8 306 319 20 320 42 331 15 41 249 294 299 305 14 18 23 359 336 333 336 336 337 340 342 343 340 343
337 338 338 336 332 330 326 322 317 315 313 314 312 308 310 307 298 258 225 254 275 160 128 56 36 64 47 294 263 297 252 51 22 343 337 7 359 345 335 2 356 2 355 102 130 68 104 61 58 32 337 352 357 26 355 22 7 355 42 325 336 44 286 323 25 38 50 324 8 50 343 247 300 295 341 58 14 14 335 332 345 346 346 346 346 347 348 338
339 339 337 334 332 328 323 316 314 314 317 323 322 311 315 324 312 229 178 192 6 114 96 68 360 94 105 29 302 35 43 24 344 308 302 35 8 343 302 290 321 10 35 23 60 74 44 74 69 135 342 356 42 44 7 28 348 9 67 293 321 351 293 334 11 70 15 271 342 62 274 324 309 322 332 345 354 358 1 5 5 1 359 357 356 355 355 356
338 339 336 334 331 326 320 316 318 322 324 321 318 304 322 352 29 96 95 61 12 33 44 24 83 64 73 251 355 28 320 294 274 333 343 49 79 293 357 38 14 346 1 67 25 53 3 61 280 13 52 89 268 27 51 23 339 324 32 343 241 348 336 322 312 75 6 55 322 13 315 241 262 303 316 330 13 1 14 11 11 14 14 14 13 12 8 7
337 337 337 333 331 324 318 317 325 326 323 315 292 310 327 0 40 101 3 20 346 83 72 94 111 50 315 8 18 318 317 296 346 306 300 349 69 27 48 37 341 7 39 8 10 46 340 43 22 133 360 25 25 24 69 307 265 306 340 349 330 292 195 256 329 302 9 12 324 307 242 270 281 303 323 355 9 22 27 24 25 23 21 20 19 16 13 14
338 337 333 333 326 322 320 317 326 327 323 306 283 174 30 55 32 63 44 349 40 352 25 332 19 75 166 299 285 280 316 289 304 13 344 342 355 80 54 87 62 61 350 54 334 46 350 47 30 38 9 352 3 59 120 219 219 252 237 244 245 309 312 300 258 289 46 328 326 48 330 315 317 328 342 9 10 38 31 30 30 24 22 21 18 16 16 14
339 336 333 332 327 322 317 323 323 324 325 351 16 15 14 20 6 349 353 28 69 96 160 260 118 251 299 340 334 297 259 22 66 352 348 341 338 6 39 53 14 64 54 46 315 40 101 67 53 341 300 300 279 211 214 226 204 228 168 179 260 260 280 261 257 257 322 324 257 265 296 299 304 328 4 6 25 38 31 32 30 27 23 19 15 16 14 16
338 336 334 330 326 320 315 321 321 325 4 101 73 62 69 159 60 54 307 345 177 116 52 292 178 170 259 281 306 357 9 326 72 358 2 303 93 61 341 24 16 42 5 245 204 306 64 60 359 285 262 258 263 254 182 175 156 209 205 246 291 232 281 289 295 329 321 52 284 65 341 307 299 5 26 32 43 36 28 27 28 27 25 21 16 13 11 1
337 336 333 329 323 313 309 321 324 331 66 77 74 97 159 197 152 167 112 45 17 283 217 318 278 357 329 224 258 152 129 248 345 3 355 27 341 74 320 74 54 56 317 348 16 18 41 61 297 279 256 192 54 67 86 278 225 93 218 240 318 294 247 287 271 327 277 13 271 10 352 305 325 23 59 57 58 49 39 40 34 29 22 17 14 11 6 10
339 337 332 324 314 311 319 319 323 9 37 33 54 75 105 205 354 282 99 114 90 322 46 6 17 2 340 305 339 105 44 35 319 349 352 5 9 64 17 41 20 0 15 23 72 20 27 304 304 313 279 20 33 31 3 43 121 189 355 12 323 289 15 322 234 43 331 229 266 311 321 293 354 107 77 72 62 54 40 37 37 35 27 18 12 6 7 8
338 332 323 315 309 305 312 314 334 41 29 107 97 100 197 42 32 84 52 134 175 319 68 225 126 140 21 10 339 58 58 347 47 345 349 32 42 283 71 51 35 45 3 22 73 99 145 277 110 74 37 57 356 340 30 17 340 287 183 209 278 324 285 192 296 332 302 356 212 295 23 315 36 62 52 37 66 53 32 27 32 27 28 19 7 16 17 9
327 319 314 307 301 307 310 358 40 3 187 43 63 250 315 218 156 147 87 357 19 348 166 37 121 38 332 312 352 52 309 137 65 224 297 59 342 39 26 183 95 9 349 252 85 58 337 279 215 356 26 34 39 7 34 27 338 330 227 192 295 279 296 284 293 319 2 344 294 40 13 261 246 63 42 352 23 32 14 26 22 14 12 8 11 9 7 9
316 312 308 305 306 317 304 36 338 151 54 62 229 245 291 317 183 128 93 74 27 290 359 19 333 358 162 340 353 231 60 51 257 343 353 353 205 111 47 19 56 357 315 25 76 177 215 350 62 35 35 14 38 52 260 78 347 359 307 177 276 301 286 298 324 15 342 341 285 25 174 254 324 36 23 15 33 27 19 25 14 10 8 8 4 3 2 359
309 305 308 313 317 320 54 282 192 123 26 338 199 258 269 215 216 124 35 2 45 339 12 270 37 331 34 321 317 38 44 306 314 341 18 8 36 312 95 325 14 59 140 204 39 319 11 331 12 36 40 22 7 11 341 89 25 306 236 52 318 318 312 311 350 157 232 266 296 62 125 204 296 312 15 356 46 30 19 15 12 8 3 1 360 358 359 357
306 302 304 333 356 40 145 134 38 48 200 260 143 240 307 232 57 41 78 65 345 317 13 327 49 324 63 313 22 73 152 292 37 334 53 300 53 351 82 66 116 328 323 81 40 282 80 328 25 357 17 7 11 288 304 135 224 260 287 340 301 281 274 232 178 228 256 22 299 337 309 359 263 234 38 25 29 20 17 6 4 4 2 356 354 354 355 354
298 303 314 320 22 54 76 103 123 116 172 117 65 92 9 50 82 110 123 100 269 61 220 40 246 28 338 356 36 20 322 4 81 299 326 342 33 174 39 356 146 162 312 86 96 307 319 157 241 129 62 338 277 288 255 159 336 276 289 293 189 89 93 141 131 137 323 55 286 278 217 237 269 300 5 9 73 14 358 358 353 0 2 353 352 348 351 349
298 297 297 292 350 9 355 36 53 175 69 72 118 95 47 52 34 32 18 42 333 338 22 278 58 303 9 7 319 3 25 342 142 307 13 63 320 25 63 121 120 55 343 6 95 251 270 318 158 84 200 245 308 290 211 192 231 298 329 343 328 29 41 42 67 92 41 1 252 236 279 156 286 322 311 32 23 316 330 346 353 352 358 358 349 344 344 343
306 306 297 4 75 248 42 12 327 44 104 129 158 59 67 39 100 104 71 234 34 309 5 24 347 16 24 35 346 338 21 347 340 26 348 351 6 40 12 23 25 43 20 357 358 353 5 342 71 282 79 356 101 323 72 186 254 2 10 337 328 344 352 35 345 40 64 282 269 251 193 146 279 275 151 96 7 352 354 351 349 348 348 352 347 342 341 339
73 67 55 64 75 21 52 268 324 69 80 117 67 56 72 326 10 66 147 320 35 324 61 298 330 27 4 293 52 335 338 324 357 29 33 17 38 35 357 83 326 22 4 28 327 356 13 27 285 351 232 74 309 352 304 10 356 14 2 11 35 317 13 334 10 351 287 264 277 23 152 3 240 215 187 221 80 360 4 342 346 343 337 346 345 343 341 334
80 79 66 57 53 33 32 218 108 189 91 52 71 49 54 91 57 293 310 320 64 348 295 149 266 357 304 28 351 341 269 36 324 67 79 6 100 44 9 70 302 95 352 316 316 10 287 306 346 327 42 259 67 13 337 359 356 11 20 27 48 358 16 314 291 220 279 274 251 275 148 238 101 296 188 121 131 322 328 321 296 335 320 336 338 335 339 336
50 78 61 348 79 87 348 109 185 104 55 41 69 31 58 57 231 193 275 281 287 359 340 353 320 328 46 64 332 352 13 274 28 334 41 356 43 24 337 10 31 2 73 350 54 316 3 349 316 28 358 1 25 107 324 232 312 289 189 71 148 87 302 302 282 311 298 294 310 78 342 228 294 254 164 149 82 335 272 291 281 312 313 322 327 325 335 336
86 70 97 33 41 39 40 147 126 84 86 65 54 77 89 194 226 250 303 307 304 299 280 334 315 30 333 13 316 335 97 306 24 15 18 49 6 58 0 335 342 87 214 68 291 69 293 226 268 160 259 30 330 230 110 338 333 253 176 111 44 312 147 212 224 236 287 310 312 327 269 188 44 175 159 204 179 330 343 311 304 330 343 338 343 344 336 332
50 336 59 26 29 331 37 66 85 71 86 65 78 45 77 176 3 139 265 191 298 346 311 339 54 32 322 316 312 39 306 54 311 61 6 74 221 61 304 231 5 19 11 64 226 7 7 312 275 331 37 220 278 321 298 72 3 301 36 352 298 207 148 275 327 276 353 302 254 211 307 41 348 246 273 249 246 261 324 345 350 352 352 347 341 341 337 331
27 335 37 333 14 339 324 345 69 78 74 87 84 61 187 291 201 189 316 34 287 54 41 76 336 58 338 320 286 344 316 33 328 47 337 82 30 357 9 248 195 356 91 153 323 190 134 277 309 61 323 312 149 218 259 348 178 51 15 289 282 127 129 131 260 326 330 272 281 354 298 299 5 308 176 249 324 343 350 353 350 347 348 347 341 340 337 328
68 64 155 36 335 322 329 286 73 51 72 74 65 117 243 62 153 201 236 20 339 341 71 78 258 70 298 29 333 351 317 67 330 31 306 349 37 140 83 333 294 126 358 297 129 299 105 337 293 291 242 276 337 40 353 13 12 313 254 295 34 334 340 325 73 320 330 293 292 299 297 287 253 265 344 346 346 344 342 339 350 349 348 346 341 344 340 335
62 82 25 334 330 29 213 126 72 61 70 69 18 89 252 225 199 179 228 161 141 105 73 331 130 344 114 56 257 281 338 25 317 360 49 346 52 46 96 216 337 119 322 206 58 303 22 268 295 282 345 309 331 44 331 301 332 20 16 27 343 164 247 357 264 255 222 285 314 294 316 293 111 242 262 310 329 331 335 343 350 347 342 336 341 338 329 324
18 36 20 299 340 344 318 100 66 46 58 89 184 117 195 190 237 268 42 147 291 74 5 70 356 330 356 228 133 328 298 141 325 285 51 298 91 38 44 355 326 320 47 5 126 212 281 115 272 280 296 4 358 7 351 358 349 342 29 358 2 356 230 206 289 157 283 291 295 305 301 291 347 225 315 251 296 323 332 338 340 338 331 337 333 323 316 316
33 99 266 323 350 322 347 46 40 36 82 77 88 127 10 284 321 300 215 296 253 314 161 163 153 71 256 16 345 201 292 334 289 289 134 317 55 337 70 35 353 327 329 21 55 342 48 352 242 312 344 16 293 31 44 76 91 93 116 35 297 355 359 8 317 55 46 329 293 301 276 294 37 158 197 258 301 322 332 344 336 332 331 327 323 316 312 312
79 46 298 328 352 49 79 58 16 95 90 64 67 75 49 40 43 336 6 169 91 2 20 106 67 121 147 243 238 298 319 301 255 21 243 80 359 61 354 56 325 283 7 37 301 266 132 177 140 303 273 282 321 61 84 110 89 80 78 22 31 98 103 12 280 312 333 273 281 268 308 288 148 200 235 314 315 322 340 338 327 325 327 324 314 314 314 312
42 109 260 336 344 65 69 58 339 39 64 191 253 18 358 33 136 245 40 348 16 161 4 57 211 25 196 263 287 296 174 285 166 328 151 238 265 259 320 324 313 301 113 345 11 288 72 62 339 292 294 243 58 78 101 67 89 60 49 60 43 32 264 193 242 319 309 308 297 308 248 286 213 234 292 289 294 313 337 334 324 325 323 320 325 323 320 317
129 73 351 328 21 107 78 105 93 48 69 283 63 52 324 149 49 4 24 336 80 349 63 325 313 117 315 122 138 334 306 358 232 32 357 114 17 17 353 344 344 14 50 118 89 323 34 297 96 319 344 336 357 186 257 204 78 89 67 15 67 30 4 256 199 175 319 274 335 316 291 302 325 338 322 316 315 327 332 327 326 323 326 322 320 317 315 311
100 318 37 326 10 50 90 171 122 132 165 110 70 29 348 14 107 146 175 353 343 158 124 345 209 284 354 41 321 286 301 93 297 4 96 258 267 48 348 5 326 82 21 345 315 308 29 264 79 47 359 334 332 331 329 330 347 173 106 7 13 55 13 24 1 307 268 303 314 295 284 284 306 318 318 318 325 336 327 320 319 325 319 318 316 316 314 310
28 89 314 7 16 42 69 56 94 123 116 123 43 314 73 30 25 258 165 132 167 95 86 252 352 104 29 30 10 5 348 342 91 295 16 319 308 356 246 326 37 23 338 19 357 353 134 326 126 149 292 267 256 270 301 25 334 337 306 39 349 356 355 12 328 323 315 302 292 268 272 306 311 318 319 322 343 330 326 324 322 321 318 314 313 311 309 307
124 73 20 8 335 51 76 32 25 39 111 154 88 342 6 304 262 328 171 13 227 115 20 51 336 38 333 39 3 323 276 324 357 102 300 316 260 262 157 13 309 316 328 7 354 82 69 29 269 151 234 248 281 288 314 42 306 263 54 351 303 4 353 16 24 321 307 301 283 304 311 308 310 314 319 333 332 328 324 318 318 318 314 315 311 307 307 303
72 243 102 209 117 355 27 360 37 69 15 74 126 127 12 345 12 23 321 77 351 357 175 317 48 76 229 103 21 0 341 334 22 335 335 199 334 333 26 28 102 311 340 24 309 96 127 54 325 103 262 279 280 285 323 70 181 184 151 61 17 330 5 3 334 296 305 295 294 306 310 306 307 309 324 333 333 325 317 314 315 310 305 307 311 309 309 307
111 138 136 332 85 265 151 191 79 91 60 62 124 78 38 72 20 217 141 320 22 358 41 26 342 0 350 276 91 1 8 23 323 278 82 308 38 330 344 342 199 355 34 35 10 162 95 268 232 184 274 276 284 289 314 269 216 173 225 8 338 353 355 331 321 301 287 286 291 300 304 302 307 317 331 328 324 318 310 307 307 309 310 308 308 306 304 306
180 126 75 14 84 107 346 32 71 48 62 350 89 321 151 175 305 348 29 69 4 338 8 62 312 336 343 174 187 34 305 206 240 281 252 54 322 129 241 199 302 337 37 38 348 314 47 317 348 336 342 293 273 42 341 280 228 219 174 340 4 354 331 325 313 309 301 292 302 308 309 308 317 335 325 322 322 317 312 314 318 316 314 313 310 308 306 304
138 112 146 119 57 336 9 20 44 83 69 344 74 232 91 216 16 106 350 199 104 282 359 308 293 318 106 108 170 230 240 214 230 228 240 207 242 232 148 295 117 316 0 5 27 328 45 309 7 49 346 317 279 348 323 322 121 147 296 17 357 340 331 332 326 321 320 319 318 317 314 312 320 323 315 317 314 312 308 309 313 313 311 308 305 305 304 310
77 41 74 106 87 323 51 324 1 56 24 247 135 250 91 6 220 114 65 160 175 215 191 238 235 2 295 354 330 324 230 200 237 246 201 216 338 78 60 122 97 30 312 86 219 38 21 355 343 355 350 308 331 331 331 329 108 358 311 200 351 349 330 318 321 329 317 318 317 318 308 314 316 326 323 318 317 312 311 312 313 312 310 303 301 297 301 316